Main page
METAR-TAF:

METAR-TAF

Airports :

Teniente R. Marsh Airport

Base Presidente Eduardo Frei Montalva, Chile

latitude: 62-11-28S, longitude: 58-59-11W, elevation: 45 m

Current weather observation

The report was made 1 hour and 46 minutes ago, at 09:00 UTC
Wind 14 kt from the West/Northwest
Temperature 0°C
Humidity 100%
Pressure 1009 hPa
Visibility: 0800 m
fog

METAR: SCRM 160900Z 30014KT 0800 FG VV002 M00/M00 Q1009 NOSIG

Time: 06:46 (10:46 UTC)


TAF: missing

Weather observations and forecasts of more than 4000 airports (METAR and TAF reports).

The available stations are represented by yellow and red dots on the map.

Hover mouse over dot to see the name of the station.

Then click to see weather observations and forecasts.

To change the map : click on the green buttons with a black cross to zoom in, on the green button with a dash to zoom out, or on the green arrows for adjacent maps.


METAR-TAF: